Change the Weather History Date:

Tuesday, September 24, 2013

  Actual Average Record
Temperature  
Mean Temperature 68 °F 71 °F  
Max Temperature 71 °F 80 °F 93 °F (1980)
Min Temperature 65 °F 62 °F 45 °F (1990)
Degree Days  
Heating Degree Days 0 1  
Month to date heating degree days 0 4  
Since 1 July heating degree days 1 4  
Cooling Degree Days 3 6  
Month to date cooling degree days 272 233  
Year to date cooling degree days 1654 1772  
Growing Degree Days 16 (Base 50)    
Moisture  
Dew Point 63 °F    
Average Humidity 84    
Maximum Humidity 100    
Minimum Humidity 68    
Precipitation  
Precipitation 0.06 in 0.15 in 3.17 in (1880)
Month to date precipitation 2.30 3.53  
Year to date precipitation 53.34 37.36  
Sea Level Pressure  
Sea Level Pressure 29.99 in    
Wind  
Wind Speed 10 mph (ESE)    
Max Wind Speed 16 mph    
Max Gust Speed 22 mph    
Visibility 7 miles    
Events Rain    
T = Trace of Precipitation, MM = Missing Value Source: NWS Daily Summary

Daily Weather History Graph

Daily Weather History Graph

Search for Another Location

Airport or City:

Trip Planner

Search our weather history database for the weather conditions in past years. The results will help you decide how hot, cold, wet, or windy it might be!

Date:

Astronomy

Sep. 24, 2013 Rise Set
Actual Time 7:27 AM EDT 7:31 PM EDT
Civil Twilight 7:02 AM EDT 7:56 PM EDT
Nautical Twilight 6:33 AM EDT 8:25 PM EDT
Astronomical Twilight 6:04 AM EDT 8:54 PM EDT
Moon 11:03 PM EDT (9/24) 12:26 PM EDT (9/24)
Length of Visible Light 12h 53m
Length of Day
12h 03m
Waning Gibbous, 73% of the Moon is Illuminated
Sep 24
Waning Gibbous
Sep 26
Last Quarter
Oct 4
New
Oct 11
First Quarter
Oct 18
Full

Hourly Weather History & Observations

Time (EDT) Temp. Dew Point Humidity Pressure Visibility Wind Dir Wind Speed Gust Speed Precip Events Conditions
12:52 AM 71.1 °F 60.1 °F 68% 30.00 in 10.0 mi ESE 6.9 mph - N/A   Overcast
1:52 AM 70.0 °F 60.1 °F 71% 29.99 in 10.0 mi ESE 6.9 mph - N/A   Overcast
2:52 AM 69.1 °F 63.0 °F 81% 29.99 in 10.0 mi SE 3.5 mph - N/A   Overcast
2:56 AM 69.8 °F 62.6 °F 78% 30.02 in 10.0 mi ESE 6.9 mph - N/A   Overcast
3:50 AM 66.2 °F 64.4 °F 94% 30.02 in 3.0 mi ESE 5.8 mph - 0.00 in Rain Light Rain
3:52 AM 66.0 °F 64.0 °F 93% 29.99 in 2.5 mi ESE 6.9 mph - 0.00 in Rain Light Rain
4:52 AM 64.9 °F 64.0 °F 97% 29.99 in 2.5 mi East 9.2 mph - 0.01 in Rain Light Rain
5:52 AM 66.0 °F 64.0 °F 93% 30.00 in 2.5 mi East 9.2 mph - 0.01 in Rain Light Rain
6:47 AM 66.2 °F 64.4 °F 94% 30.03 in 5.0 mi ESE 8.1 mph - 0.00 in   Overcast
6:52 AM 66.0 °F 64.0 °F 93% 30.01 in 5.0 mi East 9.2 mph - 0.00 in   Overcast
7:08 AM 64.4 °F 64.4 °F 100% 30.03 in 1.0 mi ESE 8.1 mph - 0.00 in Rain Light Rain
7:52 AM 64.9 °F 64.0 °F 97% 30.02 in 1.0 mi East 8.1 mph - 0.01 in   Light Drizzle
7:59 AM 64.4 °F 64.4 °F 100% 30.04 in 2.0 mi East 8.1 mph - 0.00 in   Light Drizzle
8:09 AM 64.4 °F 64.4 °F 100% 30.04 in 1.5 mi ESE 9.2 mph - 0.00 in   Light Drizzle
8:32 AM 64.4 °F 64.4 °F 100% 30.04 in 2.0 mi East 12.7 mph - 0.01 in Rain Light Rain
8:50 AM 64.4 °F 62.6 °F 94% 30.05 in 5.0 mi East 11.5 mph - 0.01 in   Light Drizzle
8:52 AM 64.9 °F 63.0 °F 93% 30.03 in 5.0 mi East 11.5 mph 17.3 mph 0.01 in   Light Drizzle
9:39 AM 64.4 °F 62.6 °F 94% 30.05 in 1.5 mi ESE 12.7 mph 18.4 mph 0.02 in Rain Light Rain
9:52 AM 64.9 °F 63.0 °F 93% 30.03 in 1.5 mi ESE 10.4 mph - 0.02 in Rain Light Rain
9:55 AM 64.4 °F 62.6 °F 94% 30.05 in 2.5 mi ESE 12.7 mph - 0.00 in   Light Drizzle
10:14 AM 64.4 °F 64.4 °F 100% 30.04 in 6.0 mi ESE 10.4 mph - 0.00 in   Light Drizzle
10:52 AM 66.0 °F 63.0 °F 90% 30.03 in 6.0 mi East 10.4 mph - 0.00 in   Overcast
11:43 AM 66.2 °F 62.6 °F 88% 30.04 in 8.0 mi ESE 15.0 mph - N/A   Overcast
11:52 AM 66.0 °F 62.1 °F 87% 30.02 in 8.0 mi ESE 16.1 mph - N/A   Overcast
12:25 PM 66.2 °F 62.6 °F 88% 30.04 in 10.0 mi ESE 11.5 mph 17.3 mph N/A   Overcast
12:52 PM 66.0 °F 61.0 °F 84% 30.01 in 10.0 mi ESE 13.8 mph 21.9 mph N/A   Overcast
1:52 PM 66.9 °F 61.0 °F 81% 30.00 in 10.0 mi ESE 10.4 mph - N/A   Overcast
2:52 PM 66.9 °F 62.1 °F 84% 29.98 in 10.0 mi ESE 10.4 mph - N/A   Overcast
3:52 PM 68.0 °F 61.0 °F 78% 29.97 in 10.0 mi ESE 9.2 mph - N/A   Overcast
3:57 PM 68.0 °F 60.8 °F 78% 29.98 in 10.0 mi ESE 6.9 mph - N/A   Overcast
4:52 PM 68.0 °F 62.1 °F 81% 29.94 in 10.0 mi East 10.4 mph - N/A   Overcast
5:52 PM 68.0 °F 62.1 °F 81% 29.94 in 10.0 mi ESE 9.2 mph - N/A   Overcast
6:52 PM 68.0 °F 62.1 °F 81% 29.94 in 10.0 mi East 8.1 mph - N/A   Overcast
7:52 PM 66.0 °F 62.1 °F 87% 29.92 in 10.0 mi East 11.5 mph - N/A   Overcast
8:52 PM 66.0 °F 62.1 °F 87% 29.93 in 10.0 mi ESE 8.1 mph - N/A   Overcast
9:25 PM 66.2 °F 62.6 °F 88% 29.94 in 10.0 mi East 8.1 mph - N/A   Overcast
9:52 PM 66.0 °F 62.1 °F 87% 29.91 in 10.0 mi ESE 12.7 mph - N/A   Overcast
10:24 PM 66.2 °F 62.6 °F 88% 29.92 in 10.0 mi East 10.4 mph - N/A   Overcast
10:42 PM 66.2 °F 62.6 °F 88% 29.93 in 10.0 mi East 9.2 mph - N/A   Overcast
10:52 PM 66.0 °F 63.0 °F 90% 29.91 in 10.0 mi East 11.5 mph - N/A   Overcast
11:38 PM 66.2 °F 62.6 °F 88% 29.91 in 10.0 mi East 12.7 mph - 0.00 in Rain Light Rain
11:52 PM 66.0 °F 63.0 °F 90% 29.89 in 10.0 mi East 9.2 mph - 0.00 in   Overcast